DH4SBM Weather Reports


time (UTC)temp
C
wind
direction
speed
KPH
gust
KPH
rain 1hr
cm
rain 24hr
cm
rain mn
cm
humidity
%
barometer
mb
20260506014541 11 180 4.8 8.0 0.00 0.43 0.00 91 1008.7
20260506013541 11 202 4.8 9.7 0.00 0.43 0.00 91 1008.6
20260506012541 11 180 3.2 8.0 0.00 0.43 0.00 91 1008.7
20260506011541 11 180 4.8 9.7 0.00 0.43 0.00 91 1008.6
20260506010541 11 180 4.8 8.0 0.00 0.43 0.00 91 1008.7
20260506005541 11 180 3.2 8.0 0.00 0.43 0.00 91 1008.7
20260506004541 11 180 3.2 8.0 0.00 0.43 0.00 91 1008.7
20260506003543 11 158 3.2 8.0 0.00 0.43 0.00 91 1008.8
20260506002543 11 158 1.6 8.0 0.00 0.43 0.00 91 1008.9
20260506001544 11 180 1.6 8.0 0.00 0.43 0.00 91 1009.0
20260506000543 11 180 1.6 4.8 0.00 0.43 0.00 91 1009.2
20260505235543 11 180 3.2 8.0 0.00 0.43 0.00 91 1009.2
20260505234543 11 180 3.2 9.7 0.00 0.43 0.00 91 1009.3
20260505233543 11 180 3.2 8.0 0.00 0.43 0.00 91 1009.4
20260505232543 11 180 3.2 6.4 0.00 0.43 0.00 92 1009.3
20260505231543 11 202 3.2 9.7 0.00 0.43 0.00 92 1009.3
20260505230543 11 202 4.8 8.0 0.00 0.43 0.00 92 1009.3
20260505225544 11 180 6.4 11.3 0.00 0.43 0.00 92 1009.4
20260505224544 11 180 4.8 9.7 0.00 0.43 0.00 92 1009.4
20260505223544 11 180 4.8 11.3 0.00 0.43 0.00 92 1009.5
20260505222544 12 158 3.2 8.0 0.00 0.43 0.00 92 1009.4
20260505221544 12 180 1.6 4.8 0.00 0.43 0.00 92 1009.2
20260505220544 12 180 1.6 6.4 0.00 0.43 0.00 92 1009.3
20260505215543 12 202 3.2 6.4 0.00 0.43 0.43 92 1009.3
20260505214543 12 202 1.6 4.8 0.00 0.43 0.43 92 1009.5
20260505213543 12 202 1.6 3.2 0.00 0.43 0.43 92 1009.5
20260505212543 12 202 3.2 4.8 0.00 0.43 0.43 92 1009.5
20260505211543 12 202 1.6 6.4 0.00 0.43 0.43 91 1009.5
20260505210543 12 202 3.2 6.4 0.00 0.43 0.43 91 1009.5
20260505205543 12 225 6.4 11.3 0.00 0.43 0.43 91 1009.2
20260505204543 12 225 6.4 9.7 0.00 0.43 0.43 91 1009.3
20260505203543 12 225 3.2 8.0 0.00 0.43 0.43 91 1009.4
20260505202543 13 248 4.8 11.3 0.00 0.43 0.43 91 1009.3
20260505201543 13 225 4.8 11.3 0.00 0.43 0.43 91 1009.0
20260505200543 13 225 4.8 12.9 0.00 0.43 0.43 91 1008.9
20260505195543 13 202 4.8 8.0 0.00 0.43 0.43 91 1008.8
20260505194543 13 180 4.8 8.0 0.00 0.43 0.43 91 1008.6
20260505193543 13 180 3.2 8.0 0.00 0.43 0.43 91 1008.6
20260505192543 13 180 1.6 8.0 0.00 0.43 0.43 90 1008.5
20260505191543 13 180 0.0 3.2 0.00 0.43 0.43 90 1008.5
20260505190543 13 180 1.6 4.8 0.03 0.43 0.43 89 1008.5
20260505185543 14 180 1.6 6.4 0.05 0.43 0.43 89 1008.4
20260505184543 14 135 0.0 3.2 0.08 0.43 0.43 88 1008.6
20260505183658 14 135 0.0 3.2 0.08 0.43 0.43 88 1008.5
20260505182658 14 135 0.0 1.6 0.08 0.43 0.43 88 1008.4
20260505181658 15 135 0.0 3.2 0.08 0.43 0.43 87 1008.3
20260505180658 15 135 0.0 1.6 0.05 0.41 0.41 87 1008.2
20260505175658 15 202 0.0 4.8 0.03 0.36 0.36 86 1008.2
20260505174658 15 225 3.2 8.0 0.00 0.33 0.33 86 1008.6
20260505173658 15 225 4.8 8.0 0.00 0.33 0.33 84 1008.7
20260505172658 15 225 3.2 9.7 0.00 0.33 0.33 83 1008.6
20260505171658 15 180 1.6 4.8 0.00 0.33 0.33 83 1008.6
20260505170659 15 180 0.0 4.8 0.00 0.33 0.33 82 1008.5
20260505165659 15 180 1.6 4.8 0.00 0.33 0.33 83 1008.3
20260505164659 15 180 1.6 9.7 0.00 0.33 0.33 84 1008.3
20260505163659 15 0 0.0 0.0 0.00 0.33 0.33 85 1008.2
20260505162659 15 90 1.6 4.8 0.00 0.33 0.33 85 1008.2
20260505161659 15 90 3.2 6.4 0.03 0.33 0.33 86 1008.3
20260505160659 14 45 6.4 14.5 0.03 0.33 0.33 87 1008.2
20260505152659 13 0 0.0 0.0 0.05 0.33 0.33 88 1008.8
20260505151659 13 0 0.0 0.0 0.05 0.33 0.33 88 1008.8
20260505150659 13 0 0.0 0.0 0.08 0.33 0.33 89 1008.8
20260505124657 20 292 4.8 11.3 0.00 0.00 0.00 62 1008.4
20260505123539 20 292 6.4 12.9 0.00 0.00 0.00 62 1008.4
20260505122539 20 270 6.4 11.3 0.00 0.00 0.00 61 1008.4
20260505121540 20 292 4.8 11.3 0.00 0.00 0.00 63 1008.4
20260505120540 19 315 4.8 11.3 0.00 0.00 0.00 64 1008.6
20260505115539 19 292 6.4 11.3 0.00 0.00 0.00 64 1008.5
20260505114539 19 338 6.4 12.9 0.00 0.00 0.00 65 1008.5
20260505113539 19 315 6.4 14.5 0.00 0.00 0.00 65 1008.4
20260505112539 19 292 8.0 16.1 0.00 0.00 0.00 65 1008.4
20260505111540 20 315 6.4 12.9 0.00 0.00 0.00 64 1008.5
20260505110540 20 315 4.8 9.7 0.00 0.00 0.00 66 1008.5
20260505101540 18 315 6.4 12.9 0.00 0.00 0.00 68 1009.1
20260505100540 18 338 4.8 11.3 0.00 0.00 0.00 68 1009.3
20260505095539 18 270 4.8 14.5 0.00 0.00 0.00 68 1009.3
20260505094539 18 315 6.4 12.9 0.00 0.00 0.00 68 1009.3
20260505093540 19 315 4.8 14.5 0.00 0.00 0.00 67 1009.4
20260505092540 18 360 4.8 12.9 0.00 0.00 0.00 69 1009.5
20260505091539 18 338 4.8 12.9 0.00 0.00 0.00 69 1009.6
20260505090539 18 292 3.2 11.3 0.00 0.00 0.00 70 1009.7
20260505085539 18 248 6.4 14.5 0.00 0.00 0.00 71 1009.8
20260505084539 17 292 4.8 12.9 0.00 0.00 0.00 72 1009.8
20260505083539 17 292 4.8 9.7 0.00 0.00 0.00 72 1009.9
20260505082539 17 248 1.6 6.4 0.00 0.00 0.00 74 1010.0
20260505081539 17 270 3.2 11.3 0.00 0.00 0.00 74 1010.0
20260505080538 16 270 3.2 8.0 0.00 0.00 0.00 75 1010.1
20260505075538 16 292 4.8 11.3 0.00 0.00 0.00 75 1010.1
20260505074538 16 292 3.2 8.0 0.00 0.00 0.00 76 1010.2
20260505073538 16 292 3.2 6.4 0.00 0.00 0.00 77 1010.2
20260505072539 16 292 4.8 6.4 0.00 0.00 0.00 78 1010.2
20260505071539 15 292 4.8 9.7 0.00 0.00 0.00 78 1010.4
20260505070539 15 45 0.0 4.8 0.00 0.00 0.00 80 1010.7
20260505065539 14 0 0.0 0.0 0.00 0.00 0.00 82 1010.8
20260505064539 14 0 0.0 0.0 0.00 0.00 0.00 83 1010.8
20260505063538 13 0 0.0 0.0 0.00 0.00 0.00 84 1010.7
20260505062538 13 0 0.0 0.0 0.00 0.00 0.00 84 1010.8
20260505061538 13 0 0.0 0.0 0.00 0.00 0.00 84 1010.8
20260505060538 13 0 0.0 0.0 0.00 0.00 0.00 84 1010.8
20260505055538 13 0 0.0 0.0 0.00 0.00 0.00 84 1010.9
20260505054538 13 0 0.0 0.0 0.00 0.00 0.00 84 1010.9
20260505053538 13 0 0.0 0.0 0.00 0.00 0.00 85 1011.0
20260505052538 13 0 0.0 0.0 0.00 0.00 0.00 86 1011.1
20260505051538 13 0 0.0 0.0 0.00 0.00 0.00 86 1011.1
20260505050538 12 0 0.0 0.0 0.00 0.00 0.00 87 1011.0
20260505041538 12 202 1.6 4.8 0.00 0.00 0.00 86 1011.0
20260505040538 12 202 1.6 4.8 0.00 0.00 0.00 86 1011.0
20260505035538 12 202 1.6 4.8 0.00 0.00 0.00 86 1011.0
20260505034538 12 202 1.6 4.8 0.00 0.00 0.00 85 1010.8
20260505033538 12 202 1.6 4.8 0.00 0.00 0.00 85 1010.9
20260505032538 12 202 1.6 3.2 0.00 0.00 0.00 84 1011.1
20260505031538 12 202 1.6 4.8 0.00 0.00 0.00 83 1011.2
20260505030538 13 202 1.6 3.2 0.00 0.00 0.00 83 1011.4
20260505025538 13 202 1.6 3.2 0.00 0.00 0.00 83 1011.5
20260505024538 13 202 3.2 4.8 0.00 0.00 0.00 82 1011.5
20260505023538 13 202 1.6 4.8 0.00 0.00 0.00 82 1011.5
20260505022538 13 202 3.2 4.8 0.00 0.00 0.00 82 1011.7
20260505021538 13 202 1.6 4.8 0.00 0.00 0.00 82 1011.9
20260505020538 13 202 0.0 3.2 0.00 0.00 0.00 82 1012.1
20260505015536 13 202 3.2 4.8 0.00 0.00 0.00 82 1012.2